Theta_e
314 313 313 312 311 311 311 310 310 310 310 311 312 313 315 315 315 315 316 318 318 317 316 317 317 317 319 321 319 320 320 322 324 323 322 318 318 317 317 317 317 317 317 316 316
311 311 311 311 311 311 311 311 310 310 310 310 310 311 313 314 315 315 317 317 317 316 315 318 319 318 320 321 320 321 324 324 321 320 320 319 318 318 316 315 316 316 315 315 314
310 310 311 311 312 312 313 313 313 311 311 310 309 310 311 313 315 318 318 317 317 316 315 317 319 319 320 322 321 321 321 321 320 320 319 318 318 318 317 315 317 316 316 316 314
311 311 312 312 312 313 313 313 313 313 312 311 310 309 310 312 320 319 317 317 318 316 315 316 318 319 320 322 322 320 321 321 320 318 317 317 317 318 317 316 318 318 318 317 316
312 312 312 312 312 312 313 313 313 313 313 312 311 310 309 315 316 316 317 316 317 316 314 315 318 320 322 322 321 319 319 320 319 318 316 317 317 316 317 317 317 317 317 317 316
312 312 312 312 312 312 312 312 312 312 312 312 311 310 310 315 314 315 315 315 316 315 314 314 316 319 318 319 319 318 318 318 318 318 317 316 316 317 317 317 317 317 317 316 315
312 312 312 312 313 313 313 313 313 313 313 312 311 310 311 314 314 313 313 315 315 314 314 314 314 315 319 319 317 317 315 316 317 318 316 317 314 314 317 317 317 317 317 317 316
308 311 312 313 313 314 314 314 314 314 314 313 311 310 312 314 314 314 313 314 315 314 313 314 313 314 317 317 317 316 317 317 319 318 315 315 315 316 318 317 317 317 316 316 316
309 307 307 307 309 312 314 315 315 314 313 313 310 311 315 315 315 314 313 314 315 314 313 313 313 316 316 316 316 316 317 318 319 318 315 314 316 315 317 317 317 316 316 316 315
311 310 309 308 306 306 307 309 312 312 311 310 311 315 314 314 314 314 314 315 314 313 312 312 314 315 315 315 316 317 317 317 316 317 315 314 314 314 316 316 316 316 316 316 316
313 312 312 311 310 308 307 307 309 314 311 314 316 315 316 315 314 314 315 314 312 313 315 315 314 315 315 316 317 317 316 316 317 316 315 315 315 315 316 316 315 316 316 316 316
316 315 315 314 312 311 309 308 311 309 308 309 310 312 315 314 313 313 313 313 313 314 314 315 315 315 315 315 315 315 315 315 315 316 314 314 315 314 314 315 316 315 315 315 315
318 318 318 319 317 313 310 309 307 306 311 310 309 310 310 310 312 313 313 313 313 314 314 314 315 315 315 315 316 315 314 314 315 314 313 313 314 313 314 315 315 315 315 314 314
321 321 321 322 317 313 312 309 308 308 312 313 312 312 311 311 310 312 313 313 313 314 313 314 315 315 314 314 314 314 314 315 315 314 315 315 316 313 314 312 311 314 315 314 314
322 322 322 323 322 319 313 308 309 307 315 314 309 310 312 310 308 308 310 310 311 312 313 314 313 313 314 314 314 314 312 314 315 315 314 315 313 313 313 312 311 311 315 315 314
323 323 322 321 321 321 315 308 310 311 312 313 311 311 312 310 309 307 307 307 308 310 310 311 310 311 313 310 311 310 312 312 312 311 313 312 313 313 313 313 313 311 314 314 314
322 324 321 321 319 321 316 309 313 311 314 315 313 312 312 313 312 308 308 307 309 310 311 312 311 310 310 312 309 310 313 313 315 314 316 312 312 315 315 312 311 310 313 314 314
324 324 323 322 321 320 312 313 314 319 315 313 312 313 313 312 313 311 311 310 308 310 312 313 313 311 308 311 313 310 313 315 314 313 314 311 313 313 313 312 315 315 315 314 314
324 322 321 322 319 318 309 312 320 322 320 319 317 314 314 312 313 313 311 312 312 309 311 312 312 308 308 310 311 312 311 313 313 306 312 313 312 312 312 312 310 310 312 312 312
320 320 320 321 320 314 309 314 317 321 321 318 320 315 314 314 312 312 312 313 312 311 311 312 313 310 306 306 307 309 308 312 312 310 310 312 311 314 313 314 311 311 310 312 312
318 317 318 319 317 310 309 310 315 317 318 319 321 318 314 312 313 313 313 312 313 313 311 312 312 310 306 306 309 306 308 309 310 314 311 312 313 312 311 312 311 309 312 313 313
313 316 316 316 311 309 311 311 313 314 317 315 312 313 313 313 312 313 314 314 311 312 312 311 313 313 311 310 307 308 309 310 311 311 309 312 313 311 312 309 308 309 312 313 313
312 315 313 315 316 313 310 312 312 314 314 316 318 316 316 316 316 314 313 311 312 311 309 310 311 314 312 311 307 307 308 309 310 310 312 312 312 312 312 310 310 309 312 312 312
309 313 309 309 312 314 313 312 313 313 314 314 315 315 315 314 313 314 314 313 313 311 311 311 311 313 314 313 312 310 308 307 309 311 311 311 310 311 311 311 311 311 312 312 312
303 309 310 310 309 311 312 312 313 314 314 314 315 315 316 316 315 315 312 312 311 311 311 312 311 310 311 312 311 311 311 310 310 309 309 310 310 310 310 310 310 311 311 310 310
301 305 305 308 309 311 310 311 312 313 313 314 315 315 314 315 315 316 314 314 314 311 312 311 313 310 311 309 309 310 309 310 310 310 310 310 310 310 310 310 310 310 310 310 311
298 301 300 301 304 307 308 309 309 310 310 310 312 313 314 314 313 313 314 314 314 314 311 308 310 311 314 311 310 312 311 312 311 311 311 311 311 311 311 310 311 311 311 311 311
Wind_Speed
8 8 9 9 9 10 11 11 11 10 10 10 10 9 9 10 10 10 9 7 5 4 3 3 2 1 3 5 7 3 2 5 7 1 1 6 4 7 6 7 9 11 10 8 9
10 9 9 10 10 10 10 11 11 12 11 11 10 10 9 10 13 17 12 9 9 6 5 2 2 4 5 4 4 4 3 5 3 6 4 1 9 9 5 10 13 15 17 19 17
12 12 12 11 11 11 11 11 11 12 12 13 13 12 10 10 12 9 10 15 11 8 5 5 6 6 9 8 7 5 5 4 4 6 6 7 10 11 9 8 19 21 26 26 25
14 14 15 14 14 14 14 14 14 13 14 14 14 14 11 7 5 4 8 14 14 10 6 4 3 4 6 6 12 4 15 19 6 5 4 4 6 9 20 25 6 9 16 24 30
17 17 17 17 16 16 16 16 16 16 15 16 15 14 12 6 12 17 14 11 14 12 8 5 7 12 7 7 2 8 12 16 14 12 13 13 18 10 23 24 26 25 26 22 26
19 19 18 18 18 18 18 18 18 17 16 16 16 14 11 10 14 15 14 14 16 14 12 9 6 7 9 10 7 8 12 18 15 18 13 8 10 13 18 16 26 30 29 31 32
22 21 21 20 20 20 19 19 20 20 19 18 17 14 14 20 19 19 16 16 17 16 14 14 13 7 6 8 7 7 8 10 16 18 7 6 10 14 37 20 19 21 27 34 36
23 24 25 25 23 23 22 20 22 21 21 20 18 12 11 16 19 20 18 17 17 17 17 17 11 10 6 6 6 4 5 5 5 12 9 12 12 9 17 24 31 30 26 27 33
22 23 24 26 26 28 26 23 24 24 23 21 15 9 9 13 15 17 15 14 15 15 14 12 8 6 4 3 6 9 6 9 10 13 8 9 8 10 9 6 16 22 26 30 34
22 23 23 23 24 27 28 25 25 25 22 13 12 5 18 11 11 12 13 15 10 8 6 7 7 4 4 6 7 7 6 11 13 7 7 8 17 13 25 20 27 34 35 36 38
19 20 21 22 22 23 24 20 11 7 10 11 7 8 6 10 8 10 11 14 10 7 7 11 5 11 15 17 16 15 16 17 22 11 10 15 19 16 19 27 24 31 36 35 36
18 17 18 19 19 18 17 5 8 9 13 21 26 26 25 23 10 16 15 14 10 9 9 4 13 20 9 12 7 10 14 21 20 12 8 10 13 12 10 19 33 31 36 39 25
17 16 16 18 17 13 13 12 10 12 8 11 27 21 26 29 17 24 24 16 8 8 13 19 10 14 7 8 10 13 11 16 17 9 6 5 8 12 9 25 30 34 41 36 28
17 17 18 18 9 12 11 9 5 4 4 7 9 9 15 12 6 14 21 11 7 13 13 16 20 20 15 18 11 22 9 10 12 7 6 4 14 8 6 12 11 26 39 32 24
19 17 19 18 16 10 10 8 4 1 7 2 4 2 6 6 1 1 15 7 10 6 5 7 4 6 9 11 9 6 2 2 4 5 6 5 9 6 9 9 11 12 33 36 25
21 20 21 19 16 13 12 3 4 3 9 3 5 4 4 6 1 2 2 5 2 3 8 15 4 3 4 3 2 3 2 3 3 2 10 11 12 3 6 8 6 9 29 29 22
27 24 26 21 12 12 9 6 3 8 3 6 6 6 5 6 7 8 6 6 6 3 7 6 17 2 4 4 2 3 3 4 4 1 16 10 10 17 5 8 11 12 25 25 23
17 29 34 31 26 17 7 2 10 8 18 3 4 8 7 9 7 8 5 5 14 6 3 3 10 14 8 12 7 9 8 6 7 12 21 5 9 9 10 12 20 31 34 16 19
26 24 31 35 31 24 16 4 12 7 7 11 14 6 7 8 7 9 10 9 8 19 11 7 11 4 6 2 8 6 6 3 2 3 4 12 14 10 9 10 10 13 13 14 15
22 21 30 25 28 27 4 11 16 8 12 9 22 8 17 13 11 10 9 6 6 13 13 5 10 7 4 3 3 3 1 2 2 2 8 19 15 16 14 19 7 5 8 13 15
17 8 14 13 24 13 5 11 14 18 21 14 21 19 20 16 16 13 13 12 5 6 18 3 5 7 7 8 10 2 4 5 1 5 5 11 14 4 9 6 9 8 7 8 10
12 4 11 14 8 6 9 8 16 22 22 5 2 10 16 16 16 25 25 21 27 2 9 8 3 6 16 8 2 5 11 12 10 15 5 11 24 8 6 8 9 7 9 20 27
7 10 12 22 7 8 5 17 17 16 17 5 11 12 15 17 9 11 14 15 15 5 4 9 3 2 8 14 1 5 5 12 11 11 19 18 22 13 23 17 13 11 24 21 24
5 4 7 23 18 9 12 11 15 24 22 25 17 13 12 14 17 10 13 14 25 8 14 5 5 8 14 17 15 11 12 12 14 11 20 21 25 32 29 26 26 30 32 30 32
8 6 9 3 8 15 13 7 18 16 24 22 8 25 21 15 19 20 20 29 20 22 5 5 11 18 24 24 25 22 23 23 23 18 20 25 28 27 31 24 26 37 33 29 31
6 4 6 6 13 12 15 19 28 27 23 21 25 23 19 24 26 28 17 18 19 2 11 10 9 13 23 30 31 29 28 26 31 30 32 36 32 36 32 41 38 42 44 32 34
10 11 3 10 10 9 14 14 7 12 19 30 28 26 25 26 31 41 41 37 22 13 10 8 8 9 22 23 27 24 32 37 34 32 30 29 38 38 34 32 34 45 39 40 35
Wind_Direction
326 332 336 341 349 355 357 1 5 5 1 352 346 335 318 291 291 287 271 260 264 263 263 270 271 237 193 227 230 239 270 264 274 35 329 128 216 200 222 235 211 211 225 244 233
314 318 323 329 335 341 346 349 352 352 351 348 340 332 322 304 291 275 265 253 247 253 257 263 325 227 229 221 226 230 238 264 36 337 292 207 206 242 204 232 236 231 238 242 239
308 312 315 319 323 327 331 335 338 339 340 342 340 335 324 317 304 274 253 239 236 239 245 239 225 223 240 240 212 227 232 301 297 291 293 276 272 236 247 251 237 226 229 240 240
300 303 306 310 314 317 320 323 325 328 330 333 336 334 327 311 275 308 294 230 228 232 237 234 197 216 225 220 237 269 244 254 283 258 252 238 256 259 235 233 247 245 231 236 230
293 297 301 304 307 309 312 316 317 318 322 324 325 327 321 287 257 275 280 243 229 230 234 231 251 248 259 296 230 234 262 278 266 252 244 260 262 251 256 250 253 256 259 244 241
289 292 294 298 302 305 308 311 313 313 314 315 315 313 300 249 270 271 271 244 234 234 240 231 236 265 292 263 265 348 302 289 281 243 227 227 264 249 258 259 250 245 246 247 244
287 288 290 292 296 298 300 305 306 308 308 309 309 303 275 272 275 276 272 252 241 238 236 245 245 242 317 268 315 289 303 276 252 236 233 220 278 231 255 244 246 245 245 245 249
286 286 287 289 290 290 293 298 299 301 301 302 300 289 262 270 263 258 260 247 239 238 239 250 248 243 232 307 274 233 239 281 268 206 162 144 260 232 260 242 242 244 249 253 248
295 296 295 292 290 288 288 293 294 297 297 291 284 255 257 262 253 253 245 238 237 238 241 243 223 225 171 215 283 226 250 236 272 178 133 179 256 265 232 241 263 252 250 257 259
301 303 304 302 301 295 291 293 294 295 288 270 239 241 243 241 251 254 235 226 220 218 224 208 201 222 195 197 230 252 247 282 277 199 197 205 250 262 268 268 262 268 268 263 263
304 309 311 310 311 309 309 312 312 284 236 222 224 209 233 241 247 245 226 209 205 194 199 186 182 218 216 215 234 255 264 262 271 264 188 230 246 251 249 270 265 265 269 267 266
317 319 319 324 322 322 311 329 280 286 298 258 252 253 250 255 244 239 216 184 183 212 208 204 219 235 255 259 258 272 275 271 276 291 183 256 259 262 251 258 261 266 268 271 266
312 317 322 331 331 325 319 294 280 281 259 259 253 237 239 241 237 238 209 197 192 211 213 227 207 217 228 241 260 240 245 262 266 280 217 272 260 250 241 250 261 264 268 266 260
304 312 318 330 329 337 324 330 305 282 267 222 202 215 218 204 259 214 198 205 226 222 216 253 240 245 249 256 230 268 240 260 270 268 242 91 289 222 236 266 239 254 269 269 265
294 301 305 316 317 318 306 305 272 290 278 351 137 182 179 193 96 175 202 206 243 205 184 219 175 198 234 236 187 262 65 303 290 271 315 218 275 232 190 243 236 242 257 272 272
278 284 285 293 301 313 323 276 174 242 246 205 140 177 165 203 190 99 170 197 319 288 246 257 127 222 219 78 105 121 316 246 249 228 256 203 219 195 187 212 215 228 250 256 261
266 270 268 269 258 288 314 155 250 229 193 179 204 178 217 180 191 190 173 187 192 174 220 229 235 145 148 152 174 171 149 294 299 248 264 181 240 252 217 182 197 217 234 256 227
279 267 263 259 256 258 191 278 230 214 217 95 181 172 208 180 221 190 219 236 221 234 300 257 273 176 180 213 176 179 177 174 228 260 279 155 253 255 221 229 234 236 238 231 203
269 272 274 253 245 233 144 187 243 262 269 287 292 256 214 214 229 173 214 237 211 187 199 196 249 39 153 192 161 180 196 211 269 67 315 266 276 280 233 247 241 219 178 187 212
279 273 274 273 247 215 140 224 247 253 311 278 264 271 270 233 195 187 206 200 226 192 215 248 260 175 146 58 271 189 308 115 233 237 243 278 288 273 272 263 231 154 218 229 238
289 243 250 250 216 180 198 226 251 254 239 258 269 281 284 284 278 250 238 243 246 224 196 235 226 248 127 201 180 163 237 228 270 189 210 266 274 258 145 153 165 207 218 236 235
267 254 234 204 171 199 224 211 236 258 251 264 202 254 261 288 301 285 283 283 356 164 170 203 168 250 245 232 230 237 215 205 222 240 234 236 261 182 261 133 139 162 204 269 273
244 249 233 201 231 217 277 240 242 264 250 231 234 213 234 252 265 271 284 291 318 43 41 352 280 266 277 294 265 225 230 246 254 254 249 245 253 246 270 269 264 269 293 278 265
262 250 192 210 229 233 229 240 242 246 256 254 258 244 247 251 243 248 245 262 256 196 169 93 269 266 250 253 289 283 253 241 239 254 259 257 271 279 272 275 283 280 279 277 272
224 238 216 201 251 244 235 198 235 244 236 244 225 228 233 248 253 247 246 258 262 267 250 173 216 221 236 245 262 263 261 274 275 261 253 270 269 267 271 277 269 272 279 275 284
257 291 341 292 268 251 241 251 255 260 251 245 236 243 236 235 237 253 224 236 241 300 204 186 226 215 233 239 250 260 265 259 251 254 254 255 260 263 259 266 271 274 272 284 273
247 258 296 260 265 276 254 268 270 276 272 280 282 276 268 257 248 244 252 260 261 233 212 191 201 207 248 234 240 248 243 250 256 250 244 251 250 256 263 257 259 266 285 280 276